Sukhothai Airport

VTPO · Sukhothai, Thaïlande

METAR anciennes VTPO · Aéroport de Sukhothaï

Tu vois ci-dessous les METAR des derniers jours. Sélectionne une année pour parcourir les METAR plus anciens, à partir de l'année 2007.

30 mai 2024

Temps Code Temps Temp. Vue Base cloud Vent METAR/SPECI
13:00
M
34 °C 10 km+ 2.000 ft 220° 220° 7 kt METAR VTPO 300600Z 22007KT 160V290 9999 BKN020 34/26 Q1005 NOSIG
13:00
M
34 °C 10 km+ 2.000 ft 220° 220° 7 kt METAR VTPO 300600Z 22007KT 160V290 9999 BKN020 34/26 Q1005 NOSIG
12:00
V
33 °C 10 km+ - 220° 220° 6 kt METAR VTPO 300500Z 22006KT 160V290 9999 SCT018 33/27 Q1006 NOSIG
11:00
V
32 °C 10 km+ - 200° 200° 5 kt METAR VTPO 300400Z 20005KT 9999 SCT018 32/27 Q1006 NOSIG
10:00
V
31 °C 10 km+ - 200° 200° 3 kt METAR VTPO 300300Z 20003KT 9999 FEW015 31/27 Q1007 NOSIG
09:00
V
30 °C 10 km+ - 180° 180° 3 kt METAR VTPO 300200Z 18003KT 9999 FEW012 30/27 Q1007 NOSIG
08:00
V
28 °C 10 km+ - 120° 120° 3 kt METAR VTPO 300100Z 12003KT 9999 FEW012 28/27 Q1006 NOSIG
07:00
V
27 °C 10 km+ - 120° 120° 4 kt METAR VTPO 300000Z 12004KT 9999 SCT012 27/27 Q1006 NOSIG
06:00
V
27 °C 10 km+ - Var Var 2 kt METAR VTPO 292300Z VRB02KT 9999 SCT025 27/27 Q1006 NOSIG
05:00
V
27 °C 10 km+ - Var Var 2 kt METAR VTPO 292200Z VRB02KT 9999 SCT025 27/27 Q1005 NOSIG

29 mai 2024

Temps Code Temps Temp. Vue Base cloud Vent METAR/SPECI
18:00
M
28 °C 10 km+ 2.500 ft 240° 240° 5 kt METAR VTPO 291100Z 24005KT 9999 -RA FEW018 BKN025 28/28 Q1004 NOSIG
17:00
M
29 °C 10 km+ 2.500 ft 240° 240° 5 kt METAR VTPO 291000Z 24005KT 9999 FEW018 BKN025 29/28 Q1003 NOSIG
16:00
M
29 °C 10 km+ 2.200 ft 240° 240° 10 kt METAR VTPO 290900Z 24010KT 9999 -RA FEW018CB BKN022 29/28 Q1004 NOSIG
15:00
M
29 °C 10 km+ 2.200 ft 190° 190° 11 kt METAR VTPO 290800Z 19011KT 130V240 9999 4000SE -RA FEW018CB BKN022 29/28 Q1004 TEMPO 4000 RA
14:00
M
33 °C 10 km+ 2.200 ft 170° 170° 4 kt METAR VTPO 290700Z 17004KT 130V250 9999 FEW018CB BKN022 33/27 Q1005 TEMPO 3500 TSRA
13:00
V
32 °C 10 km+ - 170° 170° 4 kt METAR VTPO 290600Z 17004KT 130V250 9999 FEW015 SCT022 32/27 Q1005 NOSIG
12:00
V
32 °C 10 km+ - Var Var 4 kt METAR VTPO 290500Z VRB04KT 9999 FEW015 SCT022 32/28 Q1006 NOSIG
11:00
M
32 °C 9 km 2.000 ft 150° 150° 3 kt METAR VTPO 290400Z 15003KT 9000 -RA FEW012 BKN020 BKN080 32/27 Q1007 NOSIG
10:00
V
32 °C 10 km+ 8.000 ft Var Var 2 kt METAR VTPO 290300Z VRB02KT 9999 SCT020 BKN080 32/28 Q1007 NOSIG
09:00
V
30 °C 10 km+ - Var Var 2 kt METAR VTPO 290200Z VRB02KT 9999 FEW018 SCT022 30/27 Q1007 NOSIG
08:00
V
28 °C 10 km+ - Var Var 2 kt METAR VTPO 290100Z VRB02KT 9999 SCT025 SCT040 28/27 Q1007 NOSIG
07:00
V
27 °C 10 km+ - Var Var 2 kt METAR VTPO 290000Z VRB02KT 9999 SCT022 SCT035 27/27 Q1007 NOSIG
06:00
V
26 °C 9 km - Var Var 1 kt METAR VTPO 282300Z VRB01KT 9000 FEW022 26/26 Q1006 NOSIG
05:00
V
27 °C 9 km - 140° 140° 3 kt METAR VTPO 282200Z 14003KT 9000 FEW022 27/26 Q1005 NOSIG

28 mai 2024

Temps Code Temps Temp. Vue Base cloud Vent METAR/SPECI
20:00
M
28 °C 9 km 2.200 ft 140° 140° 5 kt METAR VTPO 281300Z 14005KT 9000 BKN022 28/27 Q1006 RETS NOSIG
19:00
M
28 °C 6 km 2.200 ft 230° 230° 4 kt METAR VTPO 281200Z 23004KT 6000 -TSRA FEW018CB BKN022 28/26 Q1005 RERA BECMG NSW
18:00
M
32 °C 10 km+ 2.200 ft 360° 360° 0 kt METAR VTPO 281100Z 00000KT 9999 4000SW -RA FEW018CB BKN022 32/27 Q1004 TEMPO 4000 TSRA
17:00
V
32 °C 10 km+ - 150° 150° 3 kt METAR VTPO 281000Z 15003KT 9999 SCT022 32/26 Q1004 NOSIG
16:00
V
32 °C 10 km+ - 130° 130° 3 kt METAR VTPO 280900Z 13003KT 9999 FEW025 32/27 Q1004 NOSIG
15:00
V
32 °C 10 km+ - 160° 160° 3 kt METAR VTPO 280800Z 16003KT 9999 SCT025 32/26 Q1005 NOSIG
14:00
M
33 °C 10 km+ 2.500 ft 170° 170° 4 kt METAR VTPO 280700Z 17004KT 9999 BKN025 33/27 Q1006 NOSIG
13:00
V
32 °C 10 km+ - Var Var 3 kt METAR VTPO 280600Z VRB03KT 9999 SCT025 32/27 Q1006 NOSIG
Signaler les modifications